Vanaf de start van Weerstation Assen op 01-04-2009 wordt iedere 5 minuten data gestuurd naar de Weather Underground. In het overzicht hieronder is dit terug te vinden op datum en per 5 minuten.
Station Historical Data
 
Dagelijks Overzicht voor Juni 25, 2017 Eenheden:  Beide    Engels   Metrisch
« Vorige Dag
Volgende Dag »
Dagelijks Wekelijks Maandelijks Jaarlijks Custom
  Huidig: Hoog: Laag: Gemiddeld:
Temperatuur: 60.8 °F /  16.0 °C 63.1 °F /  17.3 °C 60.8 °F /  16.0 °C 62.4 °F /  16.9 °C
Dauwpunt: 59.2 °F /  15.1 °C 61.2 °F /  16.2 °C 59.2 °F /  15.1 °C 60.3 °F /  15.7 °C
Vochtigheid: 94 % 94 % 90 % 92 %
Windkracht: 8.1 mph /  13.0 km/h 13.8 mph /  22.2 km/h - 6.8 mph /  11 km/h
Wind vlaag: 8.1 mph /  13.0 km/h 13.8 mph /  22.2 km/h - -
Wind:WSW - - SW
Luchtdruk: 29.8 in /  1008.0 hPa 29.8 in /  1010.4 hPa 29.8 in /  1008.0 hPa -
Neerslag: 0.05 in /  1.3 mm      
Historical Graphs
 
 
Tabel Data for Juni 25, 2017
Tijd Temperatuur Dauwpunt Luchtdruk Wind Windkracht Windvlaag Vochtigheid Regenval snelheid (Per uur) Zon Condities
00:03 63 °F /  17.2 °C 59.9 °F /  15.5 °C 29.8 in /  1010.4 hPa South 4.6 mph /  7.4 km/h 4.6 mph /  7.4 km/h 90 % 0 in /  0.0 mm 0.0 W/m2 RA
00:08 63 °F /  17.2 °C 60.3 °F /  15.7 °C 29.8 in /  1010.4 hPa SW 5.8 mph /  9.3 km/h 5.8 mph /  9.3 km/h 91 % 0 in /  0.0 mm 0.0 W/m2 RA
00:13 62.8 °F /  17.1 °C 60.1 °F /  15.6 °C 29.8 in /  1010.4 hPa SSW 4.6 mph /  7.4 km/h 4.6 mph /  7.4 km/h 91 % 0 in /  0.0 mm 0.0 W/m2 FEW
00:18 62.6 °F /  17.0 °C 59.9 °F /  15.5 °C 29.8 in /  1010.0 hPa SSW 5.8 mph /  9.3 km/h 5.8 mph /  9.3 km/h 91 % 0 in /  0.0 mm 0.0 W/m2 FEW
00:23 62.4 °F /  16.9 °C 59.7 °F /  15.4 °C 29.8 in /  1010.0 hPa SSW 5.8 mph /  9.3 km/h 5.8 mph /  9.3 km/h 91 % 0 in /  0.0 mm 0.0 W/m2 FEW
00:28 62.4 °F /  16.9 °C 59.7 °F /  15.4 °C 29.8 in /  1010.0 hPa SSW 4.6 mph /  7.4 km/h 4.6 mph /  7.4 km/h 91 % 0 in /  0.0 mm 0.0 W/m2 FEW
00:33 62.2 °F /  16.8 °C 59.9 °F /  15.5 °C 29.8 in /  1010.0 hPa SSW 7 mph /  11.3 km/h 7 mph /  11.3 km/h 92 % 0 in /  0.0 mm 0.0 W/m2 FEW
00:38 62.2 °F /  16.8 °C 59.7 °F /  15.4 °C 29.8 in /  1010.0 hPa SSE 6.9 mph /  11.1 km/h 6.9 mph /  11.1 km/h 92 % 0 in /  0.0 mm 0.0 W/m2 FEW
00:43 62.2 °F /  16.8 °C 59.7 °F /  15.4 °C 29.8 in /  1010.0 hPa SW 9.2 mph /  14.8 km/h 9.2 mph /  14.8 km/h 92 % 0 in /  0.0 mm 0.0 W/m2 FEW
00:48 62.2 °F /  16.8 °C 59.9 °F /  15.5 °C 29.8 in /  1009.7 hPa South 10.4 mph /  16.7 km/h 10.4 mph /  16.7 km/h 92 % 0 in /  0.0 mm 0.0 W/m2 FEW
00:53 62.2 °F /  16.8 °C 59.9 °F /  15.5 °C 29.8 in /  1009.7 hPa South 9.2 mph /  14.8 km/h 9.2 mph /  14.8 km/h 92 % 0 in /  0.0 mm 0.0 W/m2 FEW
00:58 62.4 °F /  16.9 °C 60.1 °F /  15.6 °C 29.8 in /  1009.7 hPa SW 5.8 mph /  9.3 km/h 5.8 mph /  9.3 km/h 92 % 0 in /  0.0 mm 0.0 W/m2 FEW
01:03 62.4 °F /  16.9 °C 60.1 °F /  15.6 °C 29.8 in /  1009.7 hPa SSW 4.6 mph /  7.4 km/h 4.6 mph /  7.4 km/h 92 % 0 in /  0.0 mm 0.0 W/m2 SCT
01:08 62.4 °F /  16.9 °C 60.1 °F /  15.6 °C 29.8 in /  1009.7 hPa SSW 6.9 mph /  11.1 km/h 6.9 mph /  11.1 km/h 92 % 0 in /  0.0 mm 0.0 W/m2 SCT
01:13 62.4 °F /  16.9 °C 60.1 °F /  15.6 °C 29.8 in /  1009.7 hPa South 5.8 mph /  9.3 km/h 5.8 mph /  9.3 km/h 92 % 0 in /  0.0 mm 0.0 W/m2 SCT
01:18 62.6 °F /  17.0 °C 59.9 °F /  15.5 °C 29.8 in /  1009.7 hPa WNW 7 mph /  11.3 km/h 7 mph /  11.3 km/h 91 % 0 in /  0.0 mm 0.0 W/m2 SCT
01:23 62.6 °F /  17.0 °C 59.9 °F /  15.5 °C 29.8 in /  1009.7 hPa South 4.6 mph /  7.4 km/h 4.6 mph /  7.4 km/h 91 % 0 in /  0.0 mm 0.0 W/m2 SCT
01:28 62.6 °F /  17.0 °C 59.9 °F /  15.5 °C 29.8 in /  1009.7 hPa SSW 8.1 mph /  13.0 km/h 8.1 mph /  13.0 km/h 91 % 0 in /  0.0 mm 0.0 W/m2 SCT
01:33 62.6 °F /  17.0 °C 59.9 °F /  15.5 °C 29.8 in /  1009.4 hPa SW 8.1 mph /  13.0 km/h 8.1 mph /  13.0 km/h 91 % 0 in /  0.0 mm 0.0 W/m2 SCT
01:38 62.8 °F /  17.1 °C 60.1 °F /  15.6 °C 29.8 in /  1009.4 hPa South 8.1 mph /  13.0 km/h 8.1 mph /  13.0 km/h 91 % 0 in /  0.0 mm 0.0 W/m2 SCT
01:43 62.8 °F /  17.1 °C 60.1 °F /  15.6 °C 29.8 in /  1009.4 hPa SSE 11.5 mph /  18.5 km/h 11.5 mph /  18.5 km/h 91 % 0 in /  0.0 mm 0.0 W/m2 SCT
01:48 62.8 °F /  17.1 °C 60.1 °F /  15.6 °C 29.8 in /  1009.4 hPa WSW 8.1 mph /  13.0 km/h 8.1 mph /  13.0 km/h 91 % 0 in /  0.0 mm 0.0 W/m2 SCT
01:53 62.8 °F /  17.1 °C 60.1 °F /  15.6 °C 29.8 in /  1009.4 hPa SW 8.1 mph /  13.0 km/h 8.1 mph /  13.0 km/h 91 % 0 in /  0.0 mm 0.0 W/m2 SCT
01:58 62.8 °F /  17.1 °C 60.1 °F /  15.6 °C 29.8 in /  1009.0 hPa SSW 10.4 mph /  16.7 km/h 10.4 mph /  16.7 km/h 91 % 0 in /  0.0 mm 0.0 W/m2 SCT
02:03 62.8 °F /  17.1 °C 60.4 °F /  15.8 °C 29.8 in /  1009.0 hPa SW 6 mph /  9.7 km/h 6 mph /  9.7 km/h 92 % 0 in /  0.0 mm 0.0 W/m2 -RA
02:08 62.8 °F /  17.1 °C 60.3 °F /  15.7 °C 29.8 in /  1009.0 hPa South 5.8 mph /  9.3 km/h 5.8 mph /  9.3 km/h 92 % 0 in /  0.0 mm 0.0 W/m2 -RA
02:13 62.8 °F /  17.1 °C 60.3 °F /  15.7 °C 29.8 in /  1008.7 hPa South 9.2 mph /  14.8 km/h 9.2 mph /  14.8 km/h 92 % 0 in /  0.0 mm 0.0 W/m2 -RA
02:18 62.8 °F /  17.1 °C 60.4 °F /  15.8 °C 29.8 in /  1008.7 hPa South 9.2 mph /  14.8 km/h 9.2 mph /  14.8 km/h 92 % 0 in /  0.0 mm 0.0 W/m2 -RA
02:23 62.8 °F /  17.1 °C 60.4 °F /  15.8 °C 29.8 in /  1008.7 hPa SSW 8.1 mph /  13.0 km/h 8.1 mph /  13.0 km/h 92 % 0 in /  0.0 mm 0.0 W/m2 -RA
02:28 62.8 °F /  17.1 °C 60.4 °F /  15.8 °C 29.8 in /  1008.7 hPa South 11.5 mph /  18.5 km/h 11.5 mph /  18.5 km/h 92 % 0 in /  0.0 mm 0.0 W/m2 -RA
02:33 63 °F /  17.2 °C 60.4 °F /  15.8 °C 29.8 in /  1008.7 hPa South 4.6 mph /  7.4 km/h 4.6 mph /  7.4 km/h 92 % 0 in /  0.0 mm 0.0 W/m2 -RA
02:38 63 °F /  17.2 °C 60.6 °F /  15.9 °C 29.8 in /  1008.4 hPa SSW 10.4 mph /  16.7 km/h 10.4 mph /  16.7 km/h 92 % 0 in /  0.0 mm 0.0 W/m2 -RA
02:43 63 °F /  17.2 °C 60.3 °F /  15.7 °C 29.8 in /  1008.4 hPa SW 5.8 mph /  9.3 km/h 5.8 mph /  9.3 km/h 91 % 0 in /  0.0 mm 0.0 W/m2 -RA
02:48 63.1 °F /  17.3 °C 60.4 °F /  15.8 °C 29.8 in /  1008.4 hPa WSW 8.1 mph /  13.0 km/h 8.1 mph /  13.0 km/h 91 % 0 in /  0.0 mm 0.0 W/m2 -RA
02:53 63.1 °F /  17.3 °C 60.4 °F /  15.8 °C 29.8 in /  1008.4 hPa WSW 5.8 mph /  9.3 km/h 5.8 mph /  9.3 km/h 91 % 0 in /  0.0 mm 0.0 W/m2 -RA
02:58 63.1 °F /  17.3 °C 60.4 °F /  15.8 °C 29.8 in /  1008.4 hPa SW 4.6 mph /  7.4 km/h 4.6 mph /  7.4 km/h 91 % 0 in /  0.0 mm 0.0 W/m2 -RA
03:03 63.1 °F /  17.3 °C 60.4 °F /  15.8 °C 29.8 in /  1008.4 hPa SW 5.8 mph /  9.3 km/h 5.8 mph /  9.3 km/h 91 % 0 in /  0.0 mm 0.0 W/m2 OVC
03:08 63.1 °F /  17.3 °C 60.8 °F /  16.0 °C 29.8 in /  1008.0 hPa WSW 3.5 mph /  5.6 km/h 3.5 mph /  5.6 km/h 92 % 0.02 in /  0.5 mm 0.0 W/m2 RA
03:13 63.1 °F /  17.3 °C 61 °F /  16.1 °C 29.8 in /  1008.4 hPa WSW 8.1 mph /  13.0 km/h 8.1 mph /  13.0 km/h 93 % 0.02 in /  0.5 mm 0.0 W/m2 RA
03:18 63 °F /  17.2 °C 61 °F /  16.1 °C 29.8 in /  1008.4 hPa WSW 11.5 mph /  18.5 km/h 11.5 mph /  18.5 km/h 93 % 0.02 in /  0.5 mm 0.0 W/m2 RA
03:23 63 °F /  17.2 °C 61 °F /  16.1 °C 29.8 in /  1008.0 hPa SW 8.1 mph /  13.0 km/h 8.1 mph /  13.0 km/h 93 % 0.02 in /  0.5 mm 0.0 W/m2 OVC
03:28 63 °F /  17.2 °C 60.8 °F /  16.0 °C 29.8 in /  1008.0 hPa WSW 4.6 mph /  7.4 km/h 4.6 mph /  7.4 km/h 93 % 0.02 in /  0.5 mm 0.0 W/m2 OVC
03:33 63 °F /  17.2 °C 60.8 °F /  16.0 °C 29.8 in /  1008.0 hPa SSW 9.2 mph /  14.8 km/h 9.2 mph /  14.8 km/h 93 % 0.02 in /  0.5 mm 0.0 W/m2 OVC
03:38 63 °F /  17.2 °C 61.2 °F /  16.2 °C 29.8 in /  1008.0 hPa WSW 4.6 mph /  7.4 km/h 4.6 mph /  7.4 km/h 94 % 0.02 in /  0.5 mm 0.0 W/m2 OVC
03:43 63 °F /  17.2 °C 61.2 °F /  16.2 °C 29.8 in /  1008.0 hPa SSW 10.4 mph /  16.7 km/h 10.4 mph /  16.7 km/h 94 % 0.02 in /  0.5 mm 0.0 W/m2 OVC
03:48 63 °F /  17.2 °C 61.2 °F /  16.2 °C 29.8 in /  1008.0 hPa SW 4.6 mph /  7.4 km/h 4.6 mph /  7.4 km/h 94 % 0.02 in /  0.5 mm 0.0 W/m2 OVC
03:53 63 °F /  17.2 °C 61.2 °F /  16.2 °C 29.8 in /  1008.0 hPa South 8.1 mph /  13.0 km/h 8.1 mph /  13.0 km/h 94 % 0.03 in /  0.8 mm 0.0 W/m2 RA
03:58 63 °F /  17.2 °C 61.2 °F /  16.2 °C 29.8 in /  1008.0 hPa West 11.5 mph /  18.5 km/h 11.5 mph /  18.5 km/h 94 % 0.03 in /  0.8 mm 0.0 W/m2 RA
04:03 62.8 °F /  17.1 °C 61 °F /  16.1 °C 29.8 in /  1008.0 hPa WSW 11.5 mph /  18.5 km/h 11.5 mph /  18.5 km/h 94 % 0.03 in /  0.8 mm 0.0 W/m2 FEW
04:08 62.8 °F /  17.1 °C 61 °F /  16.1 °C 29.8 in /  1008.0 hPa West 6.9 mph /  11.1 km/h 6.9 mph /  11.1 km/h 94 % 0.02 in /  0.5 mm 0.0 W/m2 FEW
04:13 62.8 °F /  17.1 °C 61 °F /  16.1 °C 29.8 in /  1008.0 hPa WSW 8.1 mph /  13.0 km/h 8.1 mph /  13.0 km/h 94 % 0.02 in /  0.5 mm 0.0 W/m2 RA
04:18 62.8 °F /  17.1 °C 61 °F /  16.1 °C 29.8 in /  1008.0 hPa SW 9.2 mph /  14.8 km/h 9.2 mph /  14.8 km/h 94 % 0.02 in /  0.5 mm 0.0 W/m2 RA
04:23 62.2 °F /  16.8 °C 60.3 °F /  15.7 °C 29.8 in /  1008.4 hPa West 13.8 mph /  22.2 km/h 13.8 mph /  22.2 km/h 93 % 0.02 in /  0.5 mm 0.0 W/m2 FEW
04:28 61.5 °F /  16.4 °C 59.4 °F /  15.2 °C 29.8 in /  1008.4 hPa WNW 8.1 mph /  13.0 km/h 8.1 mph /  13.0 km/h 92 % 0.02 in /  0.5 mm 0.0 W/m2 RA
04:33 61.3 °F /  16.3 °C 59.4 °F /  15.2 °C 29.8 in /  1008.4 hPa NW 5.8 mph /  9.3 km/h 5.8 mph /  9.3 km/h 93 % 0.03 in /  0.8 mm 0.0 W/m2 RA
04:39 61.3 °F /  16.3 °C 59.4 °F /  15.2 °C 29.8 in /  1008.4 hPa NNW 4.6 mph /  7.4 km/h 4.6 mph /  7.4 km/h 93 % 0.03 in /  0.8 mm 0.0 W/m2 RA
04:44 61.5 °F /  16.4 °C 59.5 °F /  15.3 °C 29.8 in /  1008.4 hPa NW 3 mph /  4.8 km/h 3 mph /  4.8 km/h 93 % 0.03 in /  0.8 mm 0.0 W/m2 FEW
04:49 61.5 °F /  16.4 °C 59.7 °F /  15.4 °C 29.8 in /  1008.4 hPa NW 8.1 mph /  13.0 km/h 8.1 mph /  13.0 km/h 94 % 0.03 in /  0.8 mm 0.0 W/m2 FEW
04:54 61.5 °F /  16.4 °C 59.7 °F /  15.4 °C 29.8 in /  1008.4 hPa WNW 1 mph /  1.6 km/h   94 % 0.02 in /  0.5 mm 0.0 W/m2 FEW
04:59 61.3 °F /  16.3 °C 59.7 °F /  15.4 °C 29.8 in /  1008.4 hPa Calm     94 % 0.02 in /  0.5 mm 0.0 W/m2 FEW
05:04 61.5 °F /  16.4 °C 59.7 °F /  15.4 °C 29.8 in /  1008.4 hPa Calm     94 % 0.02 in /  0.5 mm 0.0 W/m2 -RA
05:09 61.3 °F /  16.3 °C 59.7 °F /  15.4 °C 29.8 in /  1008.4 hPa West 3.5 mph /  5.6 km/h 3.5 mph /  5.6 km/h 94 % 0.02 in /  0.5 mm 0.0 W/m2 -RA
05:14 61.3 °F /  16.3 °C 59.5 °F /  15.3 °C 29.8 in /  1008.4 hPa WNW 1 mph /  1.6 km/h 1 mph /  1.6 km/h 94 % 0.02 in /  0.5 mm 0.0 W/m2 -RA
05:19 61.2 °F /  16.2 °C 59.4 °F /  15.2 °C 29.8 in /  1008.0 hPa NW 3 mph /  4.8 km/h 3 mph /  4.8 km/h 94 % 0.02 in /  0.5 mm 5.0 W/m2 -RA
05:24 61 °F /  16.1 °C 59.2 °F /  15.1 °C 29.8 in /  1008.0 hPa WSW 5.8 mph /  9.3 km/h 5.8 mph /  9.3 km/h 94 % 0.02 in /  0.5 mm 5.0 W/m2 -RA
05:29 60.8 °F /  16.0 °C 59.2 °F /  15.1 °C 29.8 in /  1008.0 hPa WSW 8.1 mph /  13.0 km/h 8.1 mph /  13.0 km/h 94 % 0.01 in /  0.3 mm 5.0 W/m2 -RA
Weerstation Assen
Compliments of Weather Underground - 768 kb

© 2009 - 2017 Weerstation Assen
alle rechten voorbehouden
www.weerstation-assen.nl

Baseer nooit belangrijke beslissingen op deze of andere weergegevens verkregen via Internet.
WeBBuddy Website Monitor
Weerstation Assen op Facebook
Weerstation Assen op Twitter